GW0118 Weather Reports


time (UTC)temp
F
wind
direction
speed
knots
gust
knots
rain 1hr
in
rain 24hr
in
rain mn
in
humidity
%
barometer
mb
20260901014606 64 0 0.0 0.9 0.00 0.00 0.00 62 1022.4
20260901013103 65 49 0.9 2.6 0.00 0.00 0.00 61 1022.4
20260901011621 65 89 0.9 6.1 0.00 0.00 0.00 60 1022.3
20260901010103 65 103 3.5 6.1 0.00 0.00 0.00 60 1022.4
20260901004605 65 84 0.9 5.2 0.00 0.00 0.00 60 1022.6
20260901003107 65 121 1.7 6.1 0.00 0.00 0.00 59 1022.6
20260901001607 66 59 3.5 8.7 0.00 0.00 0.00 59 1022.7
20260901000114 66 109 5.2 8.7 0.00 0.00 0.00 58 1022.8
20260831234618 66 85 4.3 9.6 0.00 0.00 0.00 58 1022.8
20260831233108 66 52 4.3 7.8 0.00 0.00 0.00 57 1022.8
20260831231610 67 89 5.2 8.7 0.00 0.00 0.00 57 1022.7
20260831230109 67 62 5.2 10.4 0.00 0.00 0.00 56 1022.6
20260831224603 67 41 4.3 8.7 0.00 0.00 0.00 56 1022.6
20260831223111 67 91 5.2 8.7 0.00 0.00 0.00 55 1022.7
20260831221612 68 79 6.1 9.6 0.00 0.00 0.00 55 1022.7
20260831220133 68 85 4.3 7.8 0.00 0.00 0.00 54 1022.6
20260831214606 69 50 5.2 9.6 0.00 0.00 0.00 53 1022.6
20260831213110 69 74 3.5 7.0 0.00 0.00 0.00 53 1022.7
20260831211608 69 68 3.5 7.0 0.00 0.00 0.00 52 1022.5
20260831210106 70 115 3.5 6.1 0.00 0.00 0.00 52 1022.6
20260831204605 70 0 0.9 6.1 0.00 0.00 0.00 51 1022.5
20260831203134 71 82 2.6 7.0 0.00 0.00 0.00 50 1022.3
20260831201606 71 127 4.3 9.6 0.00 0.00 0.00 49 1022.2
20260831200107 72 60 6.1 11.3 0.00 0.00 0.00 48 1022.0
20260831194610 73 74 7.0 13.9 0.00 0.00 0.00 45 1021.8
20260831193106 76 115 1.7 5.2 0.00 0.00 0.00 34 1021.6
20260831191606 78 0 0.0 0.9 0.00 0.00 0.00 31 1021.4
20260831190139 79 243 0.0 1.7 0.00 0.00 0.00 30 1021.3
20260831184610 80 241 0.9 4.3 0.00 0.00 0.00 29 1021.3
20260831183102 82 243 2.6 6.1 0.00 0.00 0.00 28 1021.2
20260831181606 83 267 2.6 7.8 0.00 0.00 0.00 27 1021.1
20260831180107 84 261 6.1 11.3 0.00 0.00 0.00 27 1021.0
20260831174602 84 278 7.0 12.2 0.00 0.00 0.00 27 1020.9
20260831173108 85 253 4.3 9.6 0.00 0.00 0.00 27 1021.0
20260831171607 85 227 6.1 12.2 0.00 0.00 0.00 26 1021.0
20260831170110 86 266 6.1 11.3 0.00 0.00 0.00 25 1020.9
20260831164605 86 271 3.5 14.8 0.00 0.00 0.00 25 1020.9
20260831163106 86 236 6.1 14.8 0.00 0.00 0.00 25 1020.9
20260831161629 85 221 8.7 13.9 0.00 0.00 0.00 26 1021.0
20260831160136 86 248 6.1 12.2 0.00 0.00 0.00 26 1021.0
20260831154631 86 201 5.2 12.2 0.00 0.00 0.00 26 1021.1
20260831153134 86 210 7.0 15.6 0.00 0.00 0.00 26 1021.1
20260831151611 86 233 4.3 11.3 0.00 0.00 0.00 26 1021.1
20260831150107 85 269 1.7 13.0 0.00 0.00 0.00 26 1021.3
20260831144607 85 233 6.1 12.2 0.00 0.00 0.00 26 1021.3
20260831143111 85 271 5.2 12.2 0.00 0.00 0.00 27 1021.3
20260831141604 85 311 6.1 13.9 0.00 0.00 0.00 26 1021.6
20260831134611 85 235 0.9 10.4 0.00 0.00 0.00 26 1021.9
20260831133103 85 257 2.6 8.7 0.00 0.00 0.00 26 1021.9
20260831131607 84 254 4.3 12.2 0.00 0.00 0.00 28 1022.0
20260831130141 84 249 9.6 15.6 0.00 0.00 0.00 27 1022.0
20260831124603 83 226 2.6 9.6 0.00 0.00 0.00 30 1022.0
20260831123119 83 229 5.2 14.8 0.00 0.00 0.00 29 1022.4
20260831121608 83 215 6.1 12.2 0.00 0.00 0.00 31 1022.4
20260831120147 82 236 6.1 11.3 0.00 0.00 0.00 31 1022.4
20260831114607 82 0 4.3 9.6 0.00 0.00 0.00 34 1022.6
20260831113109 81 246 2.6 5.2 0.00 0.00 0.00 36 1022.7
20260831111605 81 232 4.3 7.8 0.00 0.00 0.00 37 1022.9
20260831110110 79 0 0.0 5.2 0.00 0.00 0.00 41 1022.8
20260831104607 78 24 1.7 4.3 0.00 0.00 0.00 43 1023.0
20260831103104 77 247 1.7 5.2 0.00 0.00 0.00 46 1023.0
20260831101621 75 312 2.6 5.2 0.00 0.00 0.00 47 1023.2
20260831094610 73 41 3.5 8.7 0.00 0.00 0.00 51 1023.4
20260831093113 72 52 1.7 7.8 0.00 0.00 0.00 53 1023.3
20260831091605 71 39 5.2 9.6 0.00 0.00 0.00 54 1023.4
20260831090124 70 59 2.6 7.0 0.00 0.00 0.00 57 1023.3
20260831084603 69 47 1.7 7.8 0.00 0.00 0.00 60 1023.2
20260831083104 68 77 3.5 7.8 0.00 0.00 0.00 61 1023.2
20260831081603 67 56 3.5 7.0 0.00 0.00 0.00 61 1023.2
20260831080110 67 56 1.7 5.2 0.00 0.00 0.00 63 1023.1
20260831074603 65 71 1.7 5.2 0.00 0.00 0.00 65 1023.0
20260831073118 63 61 1.7 6.1 0.00 0.00 0.00 66 1023.1
20260831071609 62 103 2.6 4.3 0.00 0.00 0.00 66 1022.9
20260831070138 62 106 1.7 3.5 0.00 0.00 0.00 63 1022.8
20260831064606 62 0 0.0 1.7 0.00 0.00 0.00 59 1022.9
20260831063114 59 0 0.0 1.7 0.00 0.00 0.00 63 1023.0
20260831061611 59 49 0.0 1.7 0.00 0.00 0.00 62 1022.8
20260831060113 59 53 0.0 1.7 0.00 0.00 0.00 63 1022.8
20260831054605 59 0 0.0 2.6 0.00 0.00 0.00 63 1022.7
20260831053109 58 68 1.7 3.5 0.00 0.00 0.00 64 1022.6
20260831051622 59 68 2.6 4.3 0.00 0.00 0.00 62 1022.6
20260831050119 59 70 1.7 6.1 0.00 0.00 0.00 61 1022.4
20260831044605 58 60 3.5 5.2 0.00 0.00 0.00 60 1022.3
20260831043108 58 63 1.7 3.5 0.00 0.00 0.00 60 1022.2
20260831041613 59 65 1.7 4.3 0.00 0.00 0.00 60 1022.4
20260831034603 58 113 0.0 1.7 0.00 0.00 0.00 62 1022.3
20260831033109 60 97 0.9 2.6 0.00 0.00 0.00 58 1022.3
20260831031608 60 74 0.0 3.5 0.00 0.00 0.00 59 1022.1
20260831030105 60 56 0.0 3.5 0.00 0.00 0.00 59 1022.2
20260831024619 61 89 0.9 2.6 0.00 0.00 0.00 59 1022.2
20260831023107 61 0 0.0 2.6 0.00 0.00 0.00 59 1022.1
20260831021605 62 0 0.9 2.6 0.00 0.00 0.00 58 1022.1
20260831020109 62 0 0.0 0.9 0.00 0.00 0.00 57 1022.0